Powrót do katalogu

JUNTIAN-1 03

AktywnyMilitariaSSO
NORAD 61906·PAYLOAD·🇨🇳 China
Ta nazwa satelity nie została jeszcze potwierdzona przez oficjalne źródła.

Wystrzelony Nov 11, 2024 z Jiuquan Satellite Launch Center

Loading…

Następne Przeloty (najbliższe 24 godziny)

TLE

ŚwieżeSource: Space-Track

Epoka: Sep 14, 2026, 23:29 UTC

1 61906U 24205N   26257.97914025  .00023442  00000-0  56154-3 0  9993
2 61906  97.4102 339.8442 0008838  76.6925 283.5307 15.41391634102695

Śledź JUNTIAN-1 03 w czasie rzeczywistym z AllMySat

Download on the App Store